Location: Bonny Doon Airfield
(37.0704°N, 122.1252°W)
Time: 14:40:16
(UTC-08:00)

nSIGHT-1 - Visible Passes

Search period start: 22 February 2018 00:00
Search period end: 04 March 2018 00:00
Orbit: 385 x 393 km, 51.6° (Epoch: 21 February)

Date Brightness Start Highest point End Pass type
(mag) Time Alt. Az. Time Alt. Az. Time Alt. Az.
23 Feb ? 06:15:16 10° SSW 06:18:07 31° SE 06:20:59 10° ENE visible
24 Feb ? 05:19:24 10° SSE 05:21:03 13° SE 05:22:43 10° E visible
25 Feb ? 05:56:25 10° SW 05:59:35 69° SE 06:02:45 10° NE visible
26 Feb ? 05:01:29 23° SSE 05:02:24 27° SE 05:05:10 10° ENE visible
27 Feb ? 05:39:27 24° WSW 05:41:05 54° NW 05:44:13 10° NE visible
28 Feb ? 04:44:51 35° ENE 04:44:51 35° ENE 04:46:55 10° NE visible
01 Mar ? 05:22:27 28° NW 05:22:36 29° NNW 05:25:27 10° NNE visible
02 Mar ? 04:27:33 16° NE 04:27:33 16° NE 04:28:20 10° NE visible
02 Mar ? 06:00:40 10° NW 06:01:50 11° NNW 06:02:59 10° N visible
03 Mar ? 05:04:54 17° N 05:04:54 17° N 05:06:27 10° NNE visible
